Location: Helion Bumpstead
(52.0500°N, 0.4000°E)
Time: 08:28:34
(UTC+00:00)

Cosmos 1400 Rocket - Pass Details

Date: 15 November 2025
Orbit: 476 x 513 km, 81.1° (Epoch: 14 December)

Event Time Altitude Azimuth Distance (km) Brightness Sun altitude
Exits shadow 05:56:13 - 334° (NNW) 1,760 5.0 -12.6°
Reaches altitude 10° 05:56:23 10° 333° (NNW) 1,698 4.9 -12.5°
Maximum altitude 05:59:50 38° 265° (W) 765 3.1 -12.0°
Drops below altitude 10° 06:03:14 10° 196° (SSW) 1,664 5.3 -11.5°
Sets 06:05:24 0° 188° (S) 2,533 6.3 -11.2°
